Torna al catalogo

SL-6 R/B(2)

LostHEO
NORAD 26045·ROCKET BODY·🇷🇺 Russia

Lanciato Dec 27, 1999 da Plesetsk Cosmodrome

Loading…

Prossimi Passaggi (prossime 24 ore)

TLE

ObsoletoSource: Space-Track

Epoca: Aug 8, 2026, 02:45 UTC

1 26045U 99073D   26220.11514628  .00070531  12492-5  72483-3 0  9991
2 26045  62.2881 110.8258 7408249 207.2242  77.7248  2.17231441198260

Traccia SL-6 R/B(2) in tempo reale con AllMySat

Download on the App Store